[[{"header":{"parameterUnit":"m.s-1","parameterCategory":1,"la1":30.2991,"la2":30.254,"lo1":-89.0895,"lo2":-89.0444,"dy":0.0017,"dx":0.0017,"nx":28,"ny":28,"refTime":"2023-08-11T09:00:00:Z","depth":0,"parameterNumber":2,"parameterNumberName":"U-component_of_WINDS"},"data":[0,0,0,0,0,0,0,0,0,0,0,0,0,0,0,0,0,0,0,0,0,0,0,0,0,0,0,0,0,0,0,0,0,0,0,0,0,0,0,0,0,0,0,0,0,0,0,0,0,0,0,0,0,0,0,0,0,0,2.0859,2.086,0,2.0993,2.0995,2.0997,2.1011,2.101,2.1009,2.1007,2.1151,2.1156,2.1161,0,0,0,0,0,0,0,0,0,0,0,0,0,2.0621,2.0625,2.0859,2.086,2.0862,2.0993,2.0995,2.0997,2.1012,2.101,2.1008,2.1007,2.1149,2.1155,2.1161,0,0,0,0,0,0,0,0,0,0,0,0,0,2.0737,2.0626,2.0858,2.0885,2.0889,2.0993,2.0995,2.0997,2.1012,2.101,2.1008,2.1006,2.1147,2.1154,2.1162,2.125,0,0,2.1185,2.1189,0,0,0,0,0,0,0,0,2.073,2.0745,2.088,2.0883,2.0888,2.0983,2.0964,2.1082,2.1012,2.0965,2.1007,2.1005,2.1097,2.1109,2.1139,2.1257,2.1263,2.1186,2.1191,2.1194,2.1196,0,0,0,0,0,0,0,2.0722,2.074,2.0912,2.0882,2.0887,2.0892,2.0907,2.0986,2.1041,2.0969,2.0971,2.0986,2.1099,2.1131,2.1142,2.1265,2.1186,2.1193,2.1197,2.12,2.1465,2.1467,0,0,0,0,0,0,2.0708,2.0733,2.0908,2.0916,2.0802,2.0898,2.0914,2.0955,2.104,2.1051,2.0988,2.0986,2.1119,2.1133,2.1147,2.1257,2.1194,2.1201,2.1205,2.1462,2.1465,2.1468,0,0,0,0,0,0,2.0703,2.0724,2.0903,2.0825,2.0848,2.0905,2.095,2.0959,2.0991,2.1054,2.1065,2.101,2.1118,2.1136,2.1225,2.1262,2.1205,2.1211,2.146,2.1463,2.1467,2.1477,0,0,0,0,0,0,2.0696,2.0722,2.0754,2.0826,2.0852,2.0976,2.0952,2.0963,2.1003,2.1003,2.1078,2.1089,2.1118,2.1213,2.1232,2.1272,2.1217,2.1456,2.1461,2.1466,2.1473,2.148,2.1486,0,0,0,0,0,2.0687,2.0752,2.0756,2.0777,2.0894,2.0978,2.0993,2.1024,2.1006,2.104,2.1082,2.1086,2.1255,2.1222,2.1244,2.1286,2.1454,2.146,2.1465,2.147,2.1479,2.1486,0,0,0,0,0,0,2.0685,2.0762,2.0767,2.0856,2.091,2.098,2.1024,2.1032,2.1093,2.109,2.1128,2.1145,2.1231,2.1268,2.123,2.1377,2.1353,2.1363,2.135,2.1358,2.1364,2.1354,2.1224,0,0,0,0,0,2.0695,2.0755,2.082,2.0893,2.0919,2.0967,2.1005,2.1024,2.1082,2.1105,2.1153,2.1211,2.1277,2.132,2.1384,2.1479,2.1496,2.1519,2.1525,2.153,2.1538,2.1592,2.1604,2.1486,2.1486,2.1486,0,0,2.0716,2.0766,2.0801,2.0894,2.0937,2.1001,2.0986,2.1053,2.1101,2.1116,2.1202,2.1239,2.1306,2.1398,2.1441,2.1431,2.1575,2.1537,2.1541,2.1546,2.1599,2.161,2.162,2.149,2.1489,2.1489,0,0,2.0787,2.083,2.0896,2.094,2.1006,2.1038,2.1054,2.1123,2.1148,2.1234,2.1247,2.1305,2.1418,2.1466,2.1505,2.1595,2.1602,2.1615,2.1649,2.1701,2.171,2.1719,2.1752,2.1763,2.1623,2.1623,2.1623,0,2.0805,2.0899,2.0929,2.0996,2.1037,2.1052,2.112,2.1162,2.1247,2.1276,2.1263,2.1406,2.1452,2.1556,2.1578,2.1609,2.1629,2.1606,2.1706,2.1715,2.1723,2.1755,2.1767,2.1625,2.1624,2.1624,2.1624,0,2.0918,2.0984,2.1029,2.1109,2.1155,2.1222,2.1265,2.1308,2.1324,2.1357,2.1446,2.1502,2.1579,2.1605,2.1621,2.1712,2.1704,2.1698,2.1675,2.1735,2.1766,2.1778,2.1626,2.1626,2.1625,2.1625,0,0,2.099,2.1087,2.1103,2.114,2.1215,2.1267,2.1336,2.1409,2.1446,2.1505,2.1565,2.166,2.1656,2.17,2.1723,2.1768,2.1837,2.1758,2.176,2.1771,2.1941,2.1945,2.1958,2.1843,2.1845,2.1847,2.1936,0,2.107,2.119,2.1221,2.1325,2.1386,2.1403,2.1463,2.1517,2.155,2.1609,2.1647,2.1714,2.1703,2.173,2.1776,2.1819,2.1872,2.1813,2.19,2.1903,2.1882,2.1974,2.1977,2.2058,2.1948,2.195,2.1951,0,2.1178,2.1237,2.1347,2.1415,2.1442,2.1496,2.1566,2.1621,2.1684,2.1705,2.1755,2.1773,2.1847,2.1821,2.1925,2.1884,2.1922,2.1949,2.1952,2.1962,2.193,2.1986,2.2085,2.2097,2.1971,2.1969,2.1968,0,2.1219,2.1327,2.1407,2.1438,2.152,2.1557,2.1593,2.1653,2.1696,2.1758,2.1787,2.1857,2.1896,2.1951,2.1989,2.1966,2.209,2.2067,2.2111,2.2111,2.2136,2.2134,2.2243,2.2161,2.2161,2.2161,2.216,0,2.1304,2.1371,2.1427,2.1476,2.1552,2.1587,2.1662,2.1699,2.1753,2.1811,2.183,2.1885,2.1931,2.1992,2.2022,2.2104,2.2122,2.2143,2.215,2.2141,2.2138,2.2165,2.2161,2.2164,2.2163,2.2163,2.2162,0,2.1363,2.1403,2.1491,2.1561,2.1581,2.1634,2.1695,2.1744,2.1779,2.1852,2.1872,2.1927,2.2,2.2043,2.2136,2.2156,2.2247,2.2252,2.2226,2.2229,2.2271,2.2266,2.2401,2.2421,2.2326,2.2327,2.2327,0,2.1414,2.1466,2.1542,2.1581,2.1617,2.1681,2.1724,2.1762,2.1807,2.1882,2.1923,2.1997,2.2058,2.2175,2.2225,2.2296,2.2303,2.2346,2.2314,2.2303,2.2304,2.23,2.2306,2.2351,2.2351,2.2352,2.2353,0,2.1501,2.1519,2.158,2.1648,2.1699,2.1755,2.1811,2.1843,2.189,2.194,2.2014,2.2062,2.2156,2.223,2.2306,2.2346,2.2358,2.2362,2.2376,2.2367,2.235,2.236,2.224,2.2359,2.2358,2.2358,2.2357,2.2357,2.1558,2.1605,2.1666,2.1733,2.1779,2.1831,2.1881,2.1922,2.1984,2.2063,2.2082,2.2161,2.2224,2.2327,2.2368,2.2431,2.2424,2.2445,2.245,2.2454,2.2455,2.234,2.2446,2.2445,2.2445,2.2445,2.2445,0,2.1646,2.1686,2.1748,2.1825,2.1879,2.1884,2.1947,2.1992,2.206,2.2117,2.2177,2.2263,2.2336,2.2391,2.2465,2.2505,2.2513,2.2524,2.2521,2.253,2.2457,2.2438,2.2516,2.2516,2.2516,2.2516,2.2516,2.2516,2.1698,2.1777,2.1803,2.1906,2.1947,2.2022,2.2058,2.2107,2.2152,2.2247,2.2307,2.2342,2.2399,2.2478,2.2545,2.256,2.2586,2.2596,2.2612,2.2543,2.2535,2.2528,2.2509,2.2602,2.2602,2.2679,2.268,2.268]},{"header":{"parameterUnit":"m.s-1","parameterCategory":1,"la1":30.2991,"la2":30.254,"lo1":-89.0895,"lo2":-89.0444,"dy":0.0017,"dx":0.0017,"nx":28,"ny":28,"refTime":"2023-08-11T09:00:00:Z","depth":0,"parameterNumber":3,"parameterNumberName":"V-component_of_WINDS"},"data":[0,0,0,0,0,0,0,0,0,0,0,0,0,0,0,0,0,0,0,0,0,0,0,0,0,0,0,0,0,0,0,0,0,0,0,0,0,0,0,0,0,0,0,0,0,0,0,0,0,0,0,0,0,0,0,0,0,0,3.6506,3.6507,0,3.6552,3.6553,3.6553,3.6551,3.655,3.655,3.6549,3.6593,3.6595,3.6597,0,0,0,0,0,0,0,0,0,0,0,0,0,3.641,3.6412,3.6506,3.6507,3.6507,3.6552,3.6553,3.6553,3.6551,3.655,3.655,3.6549,3.6593,3.6595,3.6597,0,0,0,0,0,0,0,0,0,0,0,0,0,3.6453,3.6413,3.6506,3.6512,3.6513,3.6552,3.6553,3.6553,3.6551,3.655,3.6549,3.6548,3.6592,3.6594,3.6597,3.6633,0,0,3.6605,3.6606,0,0,0,0,0,0,0,0,3.6451,3.6457,3.651,3.6511,3.6512,3.6545,3.6535,3.658,3.6552,3.6537,3.6549,3.6548,3.6578,3.6581,3.6592,3.6635,3.6637,3.6605,3.6607,3.6608,3.6609,0,0,0,0,0,0,0,3.6448,3.6455,3.6524,3.6511,3.6512,3.651,3.6515,3.6543,3.6562,3.6538,3.6538,3.6543,3.6578,3.659,3.6593,3.6637,3.6605,3.6608,3.6609,3.661,3.6706,3.6707,0,0,0,0,0,0,3.6444,3.6453,3.6523,3.6525,3.6479,3.6512,3.6518,3.6535,3.6562,3.6565,3.6544,3.6543,3.6585,3.659,3.6595,3.6635,3.6608,3.6611,3.6612,3.6705,3.6706,3.6707,0,0,0,0,0,0,3.6442,3.6451,3.6521,3.6489,3.6498,3.6515,3.6534,3.6537,3.6548,3.6566,3.6569,3.6553,3.6585,3.6591,3.6622,3.6636,3.6612,3.6614,3.6704,3.6705,3.6707,3.6717,0,0,0,0,0,0,3.644,3.645,3.6466,3.6489,3.6499,3.655,3.6535,3.6538,3.6553,3.6552,3.6575,3.6578,3.6585,3.6618,3.6625,3.664,3.6616,3.6703,3.6705,3.6706,3.6716,3.6719,3.6722,0,0,0,0,0,3.6436,3.6467,3.6466,3.6475,3.6519,3.6551,3.6556,3.6564,3.6555,3.6569,3.6579,3.6577,3.6634,3.6622,3.6629,3.6645,3.6702,3.6704,3.6706,3.6714,3.6718,3.6721,0,0,0,0,0,0,3.6445,3.6471,3.647,3.651,3.6528,3.655,3.6569,3.6568,3.6589,3.6587,3.6595,3.66,3.663,3.6641,3.6627,3.6678,3.6666,3.667,3.667,3.6674,3.6677,3.6673,3.6619,0,0,0,0,0,3.6451,3.6476,3.6497,3.653,3.6539,3.6552,3.6566,3.657,3.6589,3.6596,3.661,3.6626,3.6647,3.6661,3.6682,3.6717,3.672,3.6731,3.6734,3.6736,3.6739,3.6754,3.6758,3.6714,3.6714,3.6714,0,0,3.6465,3.6482,3.6497,3.6532,3.6546,3.6569,3.6559,3.6584,3.66,3.66,3.663,3.664,3.6659,3.6691,3.6706,3.67,3.6751,3.6739,3.6741,3.6742,3.6757,3.6761,3.6764,3.6716,3.6715,3.6715,0,0,3.6501,3.6518,3.6545,3.6559,3.6581,3.6589,3.6595,3.6617,3.6623,3.6654,3.6652,3.667,3.6708,3.672,3.6732,3.6767,3.6765,3.6774,3.6789,3.6803,3.6807,3.681,3.682,3.6823,3.6777,3.6777,3.6777,0,3.6515,3.6551,3.6559,3.6584,3.6597,3.6597,3.6623,3.6636,3.6663,3.6671,3.6665,3.6709,3.6722,3.6755,3.6763,3.6774,3.6778,3.6771,3.6806,3.6809,3.6812,3.6821,3.6825,3.6778,3.6777,3.6777,3.6777,0,3.6565,3.659,3.6609,3.6634,3.665,3.6675,3.6684,3.6698,3.67,3.6708,3.6736,3.6751,3.6773,3.6781,3.6784,3.6814,3.6809,3.6805,3.6793,3.6817,3.6825,3.6829,3.6779,3.6778,3.6778,3.6778,0,0,3.661,3.6637,3.6643,3.6653,3.6675,3.6693,3.6716,3.6738,3.6748,3.6766,3.6783,3.6813,3.6808,3.682,3.6824,3.6837,3.6859,3.683,3.683,3.6832,3.6889,3.6891,3.6896,3.6858,3.6859,3.686,3.6887,0,3.6646,3.6688,3.6694,3.6731,3.6751,3.6749,3.6769,3.6783,3.679,3.6806,3.6814,3.6833,3.6827,3.6833,3.6846,3.6854,3.6871,3.6852,3.6872,3.6873,3.6866,3.6901,3.6904,3.6929,3.689,3.6891,3.6892,0,3.6695,3.6712,3.675,3.6766,3.6774,3.6792,3.681,3.6827,3.6841,3.6845,3.6857,3.6858,3.6879,3.6867,3.6894,3.6882,3.689,3.6894,3.6895,3.6897,3.6883,3.6901,3.6938,3.6941,3.6898,3.6897,3.6897,0,3.6719,3.6752,3.6779,3.6787,3.6807,3.6818,3.6827,3.6841,3.6852,3.6867,3.6873,3.6891,3.69,3.6912,3.6917,3.6908,3.6942,3.6932,3.6944,3.6944,3.6951,3.695,3.6988,3.6959,3.6959,3.6959,3.6959,0,3.6757,3.678,3.6789,3.6805,3.6829,3.6834,3.6857,3.6865,3.6876,3.6892,3.6892,3.6906,3.6912,3.6926,3.6929,3.6949,3.6954,3.6956,3.6956,3.6955,3.6954,3.696,3.6957,3.696,3.696,3.6959,3.6959,0,3.6789,3.6796,3.6824,3.6839,3.6843,3.686,3.6872,3.6886,3.6891,3.6911,3.6915,3.6924,3.6941,3.6946,3.6967,3.6969,3.6991,3.6991,3.6986,3.6986,3.6997,3.6995,3.7038,3.7043,3.7013,3.7013,3.7013,0,3.6812,3.6829,3.6845,3.6855,3.6864,3.6881,3.6891,3.6896,3.6907,3.6923,3.6934,3.695,3.6964,3.699,3.6997,3.7011,3.701,3.7024,3.7012,3.7009,3.7007,3.7006,3.7006,3.7026,3.7026,3.7027,3.7027,0,3.6851,3.6853,3.6869,3.6885,3.6897,3.691,3.6923,3.6931,3.6937,3.6949,3.6966,3.6976,3.6995,3.7011,3.7025,3.7031,3.7029,3.703,3.7033,3.7032,3.7027,3.7027,3.699,3.7029,3.7029,3.7029,3.7029,3.7029,3.6877,3.689,3.6903,3.6919,3.6929,3.694,3.6952,3.6959,3.6973,3.699,3.6991,3.7008,3.7019,3.7038,3.7045,3.7057,3.7053,3.7058,3.7059,3.706,3.706,3.7026,3.706,3.706,3.706,3.706,3.706,0,3.6913,3.692,3.6936,3.6952,3.6964,3.6962,3.6974,3.6984,3.6999,3.701,3.7022,3.704,3.7054,3.7061,3.7074,3.7082,3.7081,3.7086,3.7084,3.7085,3.7064,3.7059,3.7086,3.7086,3.7086,3.7086,3.7086,3.7086,3.6934,3.6955,3.6958,3.6983,3.699,3.7007,3.7014,3.7022,3.703,3.705,3.7061,3.7066,3.7074,3.7088,3.71,3.7101,3.7105,3.7109,3.711,3.709,3.7087,3.7085,3.708,3.7111,3.7111,3.713,3.713,3.7131]}]]